Location: Unspecified
(0.0000°N, 0.0000°E)
Time: 02:44:52
(UTC+00:00)

CUBEBUG 2 - Visible Passes

Search period start: 24 April 2018 00:00
Search period end: 04 May 2018 00:00
Orbit: 586 x 700 km, 97.6° (Epoch: 23 April)

Date Brightness Start Highest point End Pass type
(mag) Time Alt. Az. Time Alt. Az. Time Alt. Az.
24 Apr ? 18:33:33 10° SSE 18:37:42 78° E 18:41:49 10° N visible
25 Apr ? 18:58:05 10° S 19:02:02 42° WSW 19:05:56 10° NNW visible
26 Apr ? 19:23:25 10° SSW 19:26:20 19° WSW 19:29:15 10° WNW visible
28 Apr ? 18:34:29 10° SSE 18:38:37 83° ENE 18:42:44 10° N visible
29 Apr ? 18:59:03 10° S 19:02:56 40° WSW 19:06:49 10° NNW visible
30 Apr ? 19:24:26 10° SW 19:27:14 18° WSW 19:30:03 10° WNW visible
02 May ? 18:35:22 10° SSE 18:39:31 88° ENE 18:43:40 10° N visible
03 May ? 18:59:58 10° S 19:03:50 38° WSW 19:07:42 10° NNW visible
